This is the latest recevied weather packets stored in our database for station/object JE0GNV-13. If no packets are shown the sender has not sent any weather packets the latest 10 day(s).
| Time | Temp. | Humidity | Pressure | Rain* | Wind** | Luminosity | Snow |
|---|---|---|---|---|---|---|---|
| 1777794602 | 16.67° C | 57% | 1005 hPa | 0 mm | - | - | - |
| 1777794000 | 16.67° C | 51% | 1005 hPa | 0 mm | - | - | - |
| 1777793400 | 17.22° C | 44% | 1005.2 hPa | 0 mm | - | - | - |
| 1777792801 | 17.22° C | 42% | 1005.2 hPa | 0 mm | - | - | - |
| 1777792202 | 17.22° C | 45% | 1005.2 hPa | 0 mm | - | - | - |
| 1777791601 | 17.22° C | 51% | 1005.3 hPa | 0 mm | - | - | - |
| 1777791001 | 17.78° C | 53% | 1005.2 hPa | 0 mm | - | - | - |
| 1777790402 | 17.78° C | 51% | 1005.2 hPa | 0 mm | - | - | - |
| 1777789800 | 17.78° C | 51% | 1005.2 hPa | 0 mm | - | - | - |
| 1777789201 | 18.33° C | 50% | 1005.4 hPa | 0 mm | - | - | - |
| 1777788601 | 18.33° C | 50% | 1005.4 hPa | 0 mm | - | - | - |
| 1777788001 | 18.33° C | 47% | 1005.4 hPa | 0 mm | - | - | - |
| 1777787400 | 18.33° C | 49% | 1005.8 hPa | 0 mm | - | - | - |
| 1777786801 | 18.33° C | 48% | 1005.9 hPa | 0 mm | - | - | - |
| 1777786201 | 18.33° C | 50% | 1006 hPa | 0 mm | - | - | - |
| 1777785601 | 18.89° C | 50% | 1006 hPa | 0 mm | - | - | - |
| 1777785000 | 18.89° C | 48% | 1006 hPa | 0 mm | - | - | - |
| 1777784401 | 19.44° C | 46% | 1006 hPa | 0 mm | - | - | - |
| 1777783801 | 19.44° C | 44% | 1006.2 hPa | 0 mm | - | - | - |
| 1777783201 | 20° C | 44% | 1006.3 hPa | 0 mm | - | - | - |
| 1777782601 | 20° C | 45% | 1006.7 hPa | 0 mm | - | - | - |
| 1777782002 | 20° C | 46% | 1007 hPa | 0 mm | - | - | - |
| 1777781402 | 19.44° C | 47% | 1007.1 hPa | 0 mm | - | - | - |
| 1777780801 | 19.44° C | 48% | 1007.5 hPa | 0 mm | - | - | - |
| 1777780202 | 19.44° C | 50% | 1007.6 hPa | 0 mm | - | - | - |
* Rain latest hour (hover to see other rain measurements)
** Current wind speed in m/s (hover to see current wind gust speed)